Moffett NAS, CA

7:05 PM PDT on July 25, 2017 (GMT -0700)
Moffett Federal Air Field

Weather History for KNUQ - March, 2013

Change the Weather History Date:

Wednesday, March 20, 2013

  Actual Average Record
Temperature  
Mean Temperature 61 °F 56 °F  
Max Temperature 69 °F 65 °F 82 °F (2004)
Min Temperature 52 °F 47 °F 37 °F (1952)
Degree Days  
Heating Degree Days 4    
Month to date heating degree days 168  
Since 1 July heating degree days 1845  
Cooling Degree Days 0    
Month to date cooling degree days 0  
Year to date cooling degree days 0  
Growing Degree Days 10 (Base 50)    
Moisture  
Dew Point 51 °F    
Average Humidity 71    
Maximum Humidity 96    
Minimum Humidity 45    
Precipitation  
Precipitation 0.05 in 0.06 in 1.00 in (1958)
Month to date precipitation 0.70 1.60  
Year to date precipitation 1.42 7.42  
Since 1 July precipitation 9.19  
Sea Level Pressure  
Sea Level Pressure 30.12 in    
Wind  
Wind Speed 5 mph (NW)    
Max Wind Speed 20 mph    
Max Gust Speed 24 mph    
Visibility 10 miles    
Events Rain    
T = Trace of Precipitation, MM = Missing Value Source: NWS Daily Summary

Daily Weather History Graph

Daily Weather History Graph

Search for Another Location

Airport or City:

Trip Planner

Search our weather history database for the weather conditions in past years. The results will help you decide how hot, cold, wet, or windy it might be!

Date:

Astronomy

Mar. 20, 2013 Rise Set
Actual Time 7:11 AM PDT 7:20 PM PDT
Civil Twilight 6:45 AM PDT 7:46 PM PDT
Nautical Twilight 6:14 AM PDT 8:16 PM PDT
Astronomical Twilight 5:43 AM PDT 8:47 PM PDT
Moon 1:06 PM PDT (3/20) 2:48 AM PDT (3/20)
Length of Visible Light 13h 01m
Length of Day
12h 09m
First Quarter, 60% of the Moon is Illuminated
Mar 20
First Quarter
Mar 27
Full
Apr 2
Last Quarter
Apr 10
New
Apr 18
First Quarter

Hourly Weather History & Observations

Time (PDT) Temp. Dew Point Humidity Pressure Visibility Wind Dir Wind Speed Gust Speed Precip Events Conditions
12:56 AM 53.1 °F 50.0 °F 89% 30.12 in 9.0 mi Calm Calm - 0.00 in Rain Light Rain
1:56 AM 52.0 °F 50.0 °F 93% 30.12 in 10.0 mi Calm Calm - 0.01 in   Overcast
2:56 AM 52.0 °F 50.0 °F 93% 30.11 in 7.0 mi Calm Calm - 0.02 in Rain Light Rain
3:56 AM 53.1 °F 50.0 °F 89% 30.12 in 10.0 mi Calm Calm - 0.02 in   Overcast
4:56 AM 52.0 °F 50.0 °F 93% 30.10 in 8.0 mi Calm Calm - 0.00 in   Overcast
5:56 AM 52.0 °F 50.0 °F 93% 30.10 in 9.0 mi Calm Calm - N/A   Overcast
6:56 AM 53.1 °F 48.9 °F 86% 30.09 in 10.0 mi Calm Calm - N/A   Overcast
7:56 AM 53.1 °F 51.1 °F 93% 30.12 in 8.0 mi Calm Calm - N/A   Overcast
8:56 AM 55.0 °F 53.1 °F 93% 30.12 in 7.0 mi Calm Calm - 0.00 in   Overcast
9:56 AM 57.0 °F 54.0 °F 89% 30.13 in 8.0 mi SE 3.5 mph - N/A   Overcast
10:56 AM 61.0 °F 50.0 °F 67% 30.12 in 10.0 mi SSE 6.9 mph - N/A   Mostly Cloudy
11:56 AM 66.0 °F 45.0 °F 47% 30.12 in 10.0 mi ESE 5.8 mph - N/A   Mostly Cloudy
12:56 PM 66.0 °F 48.0 °F 52% 30.12 in 10.0 mi NNE 8.1 mph - N/A   Mostly Cloudy
1:56 PM 64.9 °F 50.0 °F 58% 30.11 in 10.0 mi NW 3.5 mph - N/A   Overcast
2:56 PM 66.0 °F 52.0 °F 60% 30.10 in 10.0 mi WNW 3.5 mph - N/A   Overcast
3:56 PM 68.0 °F 53.1 °F 59% 30.10 in 10.0 mi NW 6.9 mph - N/A   Mostly Cloudy
4:56 PM 66.0 °F 55.0 °F 68% 30.10 in 10.0 mi NW 8.1 mph - N/A   Overcast
5:56 PM 63.0 °F 53.1 °F 70% 30.09 in 10.0 mi NW 11.5 mph 17.3 mph N/A   Overcast
6:56 PM 60.1 °F 53.1 °F 78% 30.12 in 10.0 mi North 13.8 mph - N/A   Overcast
7:20 PM 59.0 °F 53.6 °F 82% 30.11 in 10.0 mi NNW 11.5 mph - N/A   Overcast
7:56 PM 57.9 °F 51.1 °F 78% 30.13 in 10.0 mi NW 11.5 mph - N/A   Overcast
8:56 PM 57.0 °F 51.1 °F 81% 30.15 in 10.0 mi NW 10.4 mph - N/A   Overcast
9:56 PM 55.9 °F 51.1 °F 84% 30.17 in 10.0 mi NW 6.9 mph - N/A   Overcast
10:56 PM 55.9 °F 48.9 °F 77% 30.16 in 10.0 mi Variable 6.9 mph - N/A   Overcast
11:18 PM 55.4 °F 48.2 °F 77% 30.15 in 10.0 mi NW 6.9 mph - N/A   Scattered Clouds
11:56 PM 55.9 °F 48.0 °F 75% 30.16 in 10.0 mi WNW 6.9 mph - N/A   Scattered Clouds